Regional Weather Roundup
Issued by NWS

Home | Current Version | Previous Version | Graphics & Text | Print | Product List | Glossary Off
Versions: 1 2 3 4 5 6 7 8 9 10 11 12 13 14 15 16 17 18 19 20 21 22 23 24 25 26 27 28 29 30 31 32 33 34 35 36 37 38 39 40 41 42 43 44 45 46 47 48 49 50

000
ASUS43 KMKX 171559
RWRWI

WISCONSIN REGIONAL WEATHER ROUNDUP
NATIONAL WEATHER SERVICE MILWAUKEE/SULLIVAN WI
1000 AM CST SAT FEB 17 2018

NOTE: "FAIR" INDICATES FEW OR NO CLOUDS BELOW 12,000 FEET WITH NO
SIGNIFICANT WEATHER AND/OR OBSTRUCTIONS TO VISIBILITY.

WIZ001-002-006>008-014>016-023>028-171700-
NORTHWEST WISCONSIN

CITY           SKY/WX    TMP DP  RH WIND       PRES   REMARKS
SUPERIOR ARPT  FAIR      24  15  69 W12       29.82S WCI  12
ASHLAND        FAIR      23  14  68 SW10      29.82S WCI  12
HAYWARD        CLOUDY    22  13  68 SW8       29.83S WCI  12
SIREN          FAIR      25  16  69 W9        29.86R WCI  15
CUMBERLAND     PTSUNNY   23  18  80 SW9       29.85S WCI  13
RICE LAKE      LGT SNOW  22  19  87 SW3       29.88S
CHETEK         LGT SNOW  22  18  83 SW7       29.87S WCI  14
LADYSMITH      CLOUDY    20  13  73 S7        29.87F HAZE    WCI  11
EAU CLAIRE     NOT AVBL
MENOMONIE      LGT SNOW  24  21  87 S5        29.89F WCI  18
NEW RICHMOND   LGT SNOW  25  20  82 SW6       29.86F WCI  18
OSCEOLA        PTSUNNY   25  19  75 S5        29.89F WCI  20
$$

WIZ003>005-009-010-017-018-171700-
NORTH CENTRAL WISCONSIN

CITY           SKY/WX    TMP DP  RH WIND       PRES   REMARKS
MANITOWISH WTR PTSUNNY   18  10  68 SW10      29.79S WCI   7
ARBOR VITAE    CLOUDY    19  10  68 SW6       29.80F WCI  11
WOODRUFF       CLOUDY    19  10  68 SW6       29.80F WCI  11
RHINELANDER    CLOUDY    18   8  65 SW12      29.82F WCI   5
EAGLE RIVER    FAIR      18   8  66 SW15      29.80S WCI   3
LAND O LAKES   PTSUNNY   18   9  66 SW7       29.80F WCI   9
PHILLIPS       CLOUDY    18  12  79 SW8       29.82S HAZE    WCI   7
TOMAHAWK       CLOUDY    19   8  61 SW6       29.85F WCI  11
MEDFORD        LGT SNOW  17  13  85 SW8       29.86F WCI   6
MERRILL        LGT SNOW  18  13  79 SW9       29.88S WCI   7
$$

WIZ029-030-035-036-043>047-171700-
CENTRAL WISCONSIN

CITY           SKY/WX    TMP DP  RH WIND       PRES   REMARKS
WAUSAU         LGT SNOW  19  14  81 SW10      29.88F VSB 1   WCI   7
MOSINEE        LGT SNOW  19  16  86 SW13G20   29.90S WCI   7
MARSHFIELD     LGT SNOW  21  16  81 SW12      29.88S WCI   9
STEVENS POINT  LGT SNOW  21  10  63 SW12      29.93S WCI   9
WAUPACA        FAIR      25   8  48 SW10      29.96S WCI  15
WAUTOMA        CLOUDY    23  10  57 SW8       29.97S WCI  14
WISC RAPIDS    CLOUDY    24   7  48 SW10      29.93F WCI  14
CAMP DOUGLAS   NOT AVBL
$$

WIZ011>013-019>022-031-037>040-048>050-171700-
NORTHEAST WISCONSIN

CITY           SKY/WX    TMP DP  RH WIND       PRES   REMARKS
ANTIGO         CLOUDY    18  11  71 SW15      29.86S WCI   4
SHAWANO        CLOUDY    25   9  50 SW9       29.92F WCI  15
OCONTO         FAIR      24   8  49 SW13G22   29.94S WCI  13
STURGEON BAY   FAIR      26  10  50 SW15G21   29.94F WCI  14
GREEN BAY      CLOUDY    23   9  55 S14       29.96S WCI  11
MANITOWOC      CLOUDY    26   6  42 SW10      29.99F WCI  16
APPLETON       CLOUDY    21   7  53 SW16      29.94F WCI   7
CLINTONVILLE   CLOUDY    24   8  51 SW12      29.94S WCI  13
OSHKOSH        CLOUDY    23   9  55 SW18G28   29.97F WCI   9
$$

WIZ032>034-041-042-053>061-171700-
SOUTHWEST WISCONSIN

CITY           SKY/WX    TMP DP  RH WIND       PRES   REMARKS
LA CROSSE      CLOUDY    26  12  55 S9        29.95F WCI  17
SPARTA         PTSUNNY   25  10  54 S3        29.95F
VIROQUA        CLOUDY    23  12  63 S14       29.93F WCI  10
BOSCOBEL       CLOUDY    26  12  55 S5        29.99F WCI  20
PRAIRIE DU CHI CLOUDY    25  10  54 CALM      29.99F
PLATTEVILLE    FAIR      22  14  72 S9        30.00F WCI  11
$$

WIZ056-057-062-063-064-067-068-171700-
SOUTH CENTRAL WISCONSIN

CITY           SKY/WX    TMP DP  RH WIND       PRES   REMARKS
REEDSBURG      CLOUDY    26  10  52 S8        29.96F WCI  17
BARABOO/DELLS  CLOUDY    24   9  53 W7        29.98R WCI  16
LONE ROCK      NOT AVBL
MINERAL POINT  FAIR      27  14  59 S9        29.98F WCI  17
MADISON        CLOUDY    23  10  57 S9        30.00F WCI  13
MIDDLETON      FAIR      25  12  56 S10       30.00F WCI  15
WATERTOWN      PTSUNNY   22   9  57 SW10      30.03R WCI  11
MONROE         FAIR      23  12  63 SW8       30.00F WCI  14
JANESVILLE     PTSUNNY   25  12  58 SW6       30.01F WCI  18
$$

WIZ051-052-058>065-066-070>072-171700-
SOUTHEAST WISCONSIN

CITY           SKY/WX    TMP DP  RH WIND       PRES   REMARKS
MILWAUKEE      CLOUDY    25   6  44 SW10      30.05S WCI  15
WAUKESHA       MOSUNNY   21   5  49 SW9       30.05S WCI  11
MILWAUKEE/TIMM PTSUNNY   23   1  39 SW12      30.05S WCI  12
RACINE         CLOUDY    24   9  52 SW10G16   30.07R WCI  14
BURLINGTON     FAIR      22   8  54 SW9       30.04F WCI  12
KENOSHA        PTSUNNY   25  10  53 SW10      30.05S WCI  15
FOND DU LAC    CLOUDY    23   8  52 SW12G24   29.99F WCI  12
SHEBOYGAN      CLOUDY    25   7  46 SW13      30.00F WCI  14
WEST BEND      CLOUDY    25   3  39 SW10      30.01F WCI  15
JUNEAU         CLOUDY    20   9  63 S12G20    30.02F WCI   8
$$

LSZ147-162-171700-
LAKE SUPERIOR

STATION/POSITION TIME  TEMP    WIND        PRES    WAVE
                       AIR SEA DIR/SP/G            HT/PER
                 (UTC) (F)     (DEG/KT/KT) (MB)    (FT/S)
DEVILS ISLAND    1500   20     220/ 15/ 20 1009.9R
SAXON HARBOR     1540   23     200/  7/ 14 1009.5S
$$

LMZ867-665-643>646-171700-
LAKE MICHIGAN

STATION/POSITION TIME  TEMP    WIND        PRES    WAVE
                       AIR SEA DIR/SP/G            HT/PER
                 (UTC) (F)     (DEG/KT/KT) (MB)    (FT/S)
NORTHPORT PIER   1540   25                 1013.2F
KEWAUNEE LAKESHO 1530   25     200/  9/ 13 1014.4F
SHEBOYGAN LAKESH 1500   22     210/ 17/ 20 1017.4F
PORT WASHINGTON  1530   24     240/  4/  9 1018.3F
MILWAUKEE LAKESH 1530   24     230/ 11/ 12   N/A
KENOSHA   LAKESH 1500   22     200/  4/  9 1017.9
$$

TC  - TEMPERATURE IN CELSIUS
VSB - VISIBILITY IN STATUTE MILES
WCI - WIND CHILL INDEX
HX  - HEAT INDEX





USA.gov is the U.S. government's official web portal to all federal, state and local government web resources and services.